Location: DARK SKY Beskydy - Park tmavé oblohy, www.darkskybeskydy.cz
(49.4926°N, 18.5016°E)
Time: 14:49:23
(UTC+01:00)

Vanguard 1 - Pass Details

Date: 16 November 2025
Orbit: 650 x 3821 km, 34.2° (Epoch: 07 December)

Event Time Altitude Azimuth Distance (km) Brightness Sun altitude
Rises 23:18:49 0° 280° (W) 7,919 14.8 -59.4°
Reaches altitude 10° 23:27:23 10° 265° (W) 6,617 14.2 -59.5°
Enters shadow 23:30:58 14° 256° (WSW) 6,123 13.9 -59.5°
